User: anonymous   Login
Location: Gniazdowice
(50.2124°N, 20.2673°E)
Time: 17:25:55
(UTC+00:00)
Language:

CZ-2C R/B - Orbit

View from above orbital plane
View from above orbital plane
View from above satellite
View from above satellite

Ground track
Ground track

The orbit data is extracted from the following two-line orbital elements,

1 28480U 04046B   24195.81543137  .00000366  00000-0  15174-3 0  9995
2 28480  98.1629 138.2555 0141328 140.1936 220.9717 14.26399689 22392
Epoch (UTC): 13 July 2024 19:34:13
Eccentricity: 0.0141328
inclination: 98.1629°
perigee height: 702 km
apogee height: 905 km
right ascension of ascending node: 138.2555°
argument of perigee: 140.1936°
revolutions per day: 14.26399689
mean anomaly at epoch: 220.9717°
orbit number at epoch: 2239

The dashed part of the orbit path shows where the satellite is in the earth's shadow,  

DLR